Theta_e
343 342 341 341 343 344 345 346 346 347 348 348 348 348 347 345 345 347 349 349 348 348 348 348 346 345 346 345 344 343 341 338 336 336 335 334 334 334 336 340 342 344 345 345 346 346 346 344 344 343 341 344 346 346 346 344 344 345 345 345 345 344 343 343 343 342 342 342 341 341 341 341 341 343 342 341 343 343 342 341 342 342 341 339 336
343 342 339 340 344 344 345 346 346 348 348 348 348 348 348 347 344 344 348 349 348 348 349 348 346 345 346 346 345 344 343 341 336 335 335 334 333 334 338 341 342 343 344 345 346 346 346 344 343 342 341 345 345 344 345 344 344 345 346 345 344 344 342 341 342 343 342 341 341 341 340 340 340 341 342 341 343 343 342 341 342 342 341 340 338
343 342 338 339 344 344 345 346 346 348 348 348 348 348 349 348 343 341 344 347 347 348 348 347 346 345 346 347 346 344 343 342 340 339 338 335 335 336 338 342 343 344 345 345 346 347 346 343 341 342 344 346 345 343 343 343 344 345 346 346 344 344 343 341 342 345 343 340 340 341 341 340 340 341 342 342 342 341 341 341 343 343 342 340 339
342 341 337 339 344 345 345 346 346 348 348 348 349 349 348 348 346 342 341 344 346 346 346 346 346 346 347 347 346 344 343 345 344 344 341 336 335 337 338 341 342 344 346 345 345 345 344 342 342 342 345 345 344 343 343 343 345 347 346 346 345 344 344 343 343 345 343 341 342 343 343 341 341 342 342 342 341 341 341 340 341 342 341 341 339
341 340 337 340 344 345 345 346 347 348 348 348 348 349 349 347 348 346 340 340 343 344 346 347 347 347 347 347 346 344 345 346 346 346 344 338 336 338 338 339 341 342 344 344 344 344 343 343 343 342 343 344 343 343 344 344 346 347 346 345 345 345 345 345 344 344 345 344 344 344 344 342 343 343 341 340 340 340 340 340 340 340 340 341 339
340 339 338 341 343 344 346 346 347 348 347 348 348 348 349 347 348 348 340 338 341 344 347 347 348 348 346 346 346 345 346 346 346 346 347 342 336 337 338 337 339 340 342 342 343 343 343 343 343 342 342 343 342 342 344 345 346 346 346 345 346 346 346 346 344 345 347 346 345 345 345 345 346 345 342 340 340 340 339 338 339 339 339 340 338
340 339 339 341 343 344 346 346 347 348 346 347 348 348 349 348 349 348 341 338 340 344 347 348 349 349 348 347 346 345 346 347 346 346 347 345 337 337 339 338 339 340 340 342 341 343 344 343 343 342 341 342 342 343 344 345 345 346 346 346 346 345 345 344 343 345 347 347 347 347 346 346 346 345 344 343 341 341 340 337 337 338 338 339 338
339 339 340 341 343 344 344 345 346 346 346 347 348 348 349 348 349 348 341 338 340 342 346 349 350 350 350 350 348 346 346 347 346 346 349 346 338 337 339 338 339 340 340 341 341 343 344 344 344 343 342 342 343 344 345 344 344 345 346 346 345 345 345 345 344 346 347 347 347 347 346 346 346 345 344 344 343 343 342 339 338 338 338 339 339
339 339 341 341 342 343 343 345 345 346 346 346 346 347 349 349 348 347 342 338 340 342 345 349 350 350 350 351 350 347 347 348 347 348 350 346 337 336 339 338 339 339 338 339 341 343 344 343 344 343 343 343 344 346 346 346 345 344 345 346 345 344 345 345 345 346 347 347 347 348 346 345 346 346 344 344 345 345 345 342 340 339 340 339 339
339 339 342 340 341 342 342 343 344 345 345 345 346 346 348 350 348 347 343 339 341 344 346 349 350 350 350 350 350 349 350 350 349 350 350 345 339 339 339 337 338 338 337 339 341 342 343 343 344 344 344 344 344 347 347 346 346 344 343 343 344 344 345 345 345 346 347 346 347 348 346 345 345 346 345 345 346 346 346 344 342 342 341 341 342
340 341 342 341 341 341 342 342 343 345 346 346 347 347 348 350 349 348 345 341 343 345 346 347 348 350 350 349 349 349 350 351 350 351 350 345 343 344 342 337 337 339 339 340 342 342 341 343 344 343 345 345 345 346 347 346 345 343 341 341 342 342 344 345 344 346 347 346 347 348 346 345 345 346 346 346 345 345 346 345 344 344 343 344 344
341 342 342 342 342 342 342 343 344 345 347 347 348 348 348 350 350 348 346 344 345 345 345 345 347 349 349 349 349 349 350 351 351 351 350 346 346 349 345 339 339 342 343 343 342 341 340 342 343 343 343 344 344 344 346 347 346 343 341 341 341 341 343 344 343 345 346 346 346 347 347 346 346 346 346 346 345 344 345 346 347 346 344 345 345
343 344 344 343 343 342 342 343 344 346 347 348 348 348 349 350 350 349 347 346 347 346 344 345 346 347 348 348 349 349 348 350 350 350 350 348 347 349 346 340 341 343 343 343 341 340 340 340 341 342 342 343 344 344 345 348 347 344 343 342 341 341 342 343 342 343 343 344 345 346 348 348 347 347 347 347 346 345 344 345 346 346 345 344 344
345 344 345 344 344 343 343 344 345 346 347 347 347 349 350 351 350 349 347 345 347 346 344 344 345 345 346 347 349 349 347 347 349 349 350 349 347 348 346 342 342 342 342 343 342 340 340 340 341 342 343 343 344 345 345 346 346 345 346 345 344 342 341 341 340 341 342 342 344 347 349 349 348 348 348 348 348 347 346 346 346 345 345 345 345
348 345 345 346 346 345 344 344 345 346 347 347 348 348 350 351 350 349 347 345 346 346 343 343 344 344 345 346 347 348 347 346 347 348 348 348 347 348 347 345 343 341 342 344 345 341 340 341 342 342 343 343 344 345 344 345 346 345 346 348 347 345 343 342 341 341 341 342 344 346 349 350 350 349 349 349 350 350 349 348 348 348 347 348 348
350 347 346 346 346 346 346 345 345 346 346 347 348 348 350 350 350 350 348 345 346 345 343 343 344 344 344 345 345 346 347 348 347 347 347 347 347 346 345 345 344 342 343 346 347 345 342 343 344 343 343 343 344 345 344 344 345 345 345 347 348 346 344 343 343 342 342 342 344 346 348 350 350 349 349 350 350 350 350 349 348 348 349 349 348
351 349 347 347 347 346 347 347 346 346 346 347 348 348 349 350 349 350 349 346 345 345 345 344 344 345 345 344 345 346 348 349 346 346 347 347 347 346 344 344 344 343 344 346 349 348 345 345 346 345 344 343 344 345 343 343 343 343 342 343 345 344 343 343 343 343 342 342 344 347 349 349 349 349 349 350 350 350 349 349 349 349 349 350 350
353 351 348 347 348 347 348 348 347 347 347 347 349 349 349 349 350 351 350 347 345 346 345 344 344 345 344 344 344 345 348 348 346 345 347 347 346 344 344 345 344 343 344 345 348 349 347 346 347 347 346 345 345 345 344 343 342 342 342 342 343 343 343 343 343 343 344 343 343 347 349 350 351 351 351 351 351 350 350 350 351 352 352 351 351
354 353 350 348 349 349 348 348 348 348 348 348 349 349 349 350 350 351 351 347 344 345 346 344 343 344 344 344 343 343 344 345 345 346 347 346 345 343 343 345 345 345 344 345 347 348 347 346 347 348 348 347 346 345 344 344 343 342 343 343 343 343 342 342 342 343 344 343 344 348 351 352 352 352 352 352 351 351 352 351 351 353 353 352 351
354 354 351 349 349 349 349 349 349 349 349 349 350 350 350 351 351 351 352 348 343 345 347 345 343 343 344 344 344 342 341 342 344 346 347 345 344 344 344 345 346 347 347 346 346 346 346 346 347 347 348 348 346 346 345 345 344 343 342 343 343 343 342 343 344 343 343 343 344 347 351 353 352 352 353 353 352 353 352 351 352 353 353 352 352
353 353 353 351 350 350 349 350 350 350 350 350 350 350 350 351 351 351 352 350 344 344 346 345 344 343 343 343 343 343 341 340 342 345 346 346 346 346 347 347 348 348 348 347 347 347 347 347 347 346 346 345 346 346 347 345 344 343 343 343 343 343 343 344 345 344 343 343 343 343 347 351 352 351 351 350 349 349 350 351 353 353 352 352 352
352 352 353 353 353 351 349 350 351 350 350 350 350 350 350 350 350 350 351 351 346 342 343 345 345 344 343 342 342 343 343 341 342 345 346 347 347 348 349 350 350 348 348 348 348 348 349 349 348 347 345 344 345 346 348 348 346 344 344 344 344 343 344 346 346 345 345 345 345 344 346 349 350 349 347 347 345 345 348 352 353 352 353 353 353
351 351 351 351 353 354 351 349 350 350 350 350 350 350 350 350 350 350 350 350 348 343 340 343 345 345 344 342 341 342 343 343 343 344 347 349 349 349 351 351 350 350 349 348 347 348 350 349 349 348 347 347 346 345 348 350 348 347 347 347 346 344 344 345 346 346 345 344 344 345 347 348 349 348 347 349 349 349 351 353 353 353 354 353 352
351 352 352 350 351 354 353 350 349 349 349 350 350 350 350 350 349 350 350 350 349 345 340 341 344 345 344 343 342 342 342 344 344 344 348 352 353 353 353 351 351 351 350 348 347 349 350 350 349 350 349 350 348 347 349 351 349 348 349 350 349 347 345 345 346 346 346 346 344 344 346 348 350 350 350 351 352 354 354 354 354 354 354 353 352
352 353 354 353 353 354 353 349 348 349 349 349 350 350 350 350 350 350 349 350 350 348 343 340 342 345 345 344 344 344 343 342 343 345 349 352 354 355 354 352 351 352 351 349 349 349 350 349 349 350 350 351 350 349 349 350 350 349 349 349 350 350 347 347 347 348 350 351 350 347 346 348 350 352 353 353 354 354 354 353 353 353 353 353 353
353 353 355 355 355 354 351 349 349 349 348 348 349 351 350 350 350 350 350 350 351 349 345 342 342 345 346 346 347 348 347 344 342 344 348 352 354 354 353 352 351 352 352 351 351 349 349 348 348 348 349 350 350 350 351 350 351 351 350 349 350 351 351 350 350 350 352 354 354 352 350 349 349 350 351 352 352 353 353 353 353 352 352 352 352
351 351 352 353 353 353 351 349 349 349 348 349 352 352 352 350 350 350 351 351 351 350 347 344 345 348 349 349 351 352 351 349 346 344 347 351 352 352 351 351 352 352 351 351 351 350 349 348 347 348 348 349 349 349 351 351 351 351 351 350 350 352 352 352 352 352 352 353 354 354 353 351 351 351 351 352 352 352 353 352 352 353 352 350 349
350 351 350 350 350 350 350 350 349 348 348 351 354 354 354 354 353 353 353 353 353 351 349 349 350 351 351 351 353 354 353 352 351 348 347 348 350 350 351 351 351 351 351 350 351 350 350 349 349 349 349 349 348 348 349 350 350 351 351 351 352 352 352 352 352 351 351 352 353 353 353 353 354 354 353 354 353 352 351 350 351 352 351 349 348
347 349 349 349 349 349 349 349 348 349 349 352 355 354 354 354 354 355 355 355 355 354 353 354 353 353 352 351 351 352 352 352 353 352 350 349 350 351 351 350 350 350 350 350 349 349 350 350 350 350 350 350 349 349 349 349 349 350 350 351 352 353 352 352 352 351 352 353 353 353 354 354 354 354 354 354 353 351 350 349 349 349 350 349 349
345 346 347 348 348 348 348 349 349 350 352 353 354 354 353 354 354 354 354 355 355 355 354 354 354 353 352 351 351 351 351 352 353 353 353 352 351 352 351 350 350 350 349 350 350 349 349 350 350 350 350 351 350 350 349 349 349 349 349 349 351 352 352 352 352 352 353 353 353 353 353 353 353 353 353 352 351 350 349 349 349 349 350 350 350
345 345 346 347 347 346 347 349 350 351 353 353 353 354 353 354 353 352 352 353 354 353 352 352 352 352 351 351 351 350 350 351 352 353 352 352 352 351 351 350 350 349 348 348 350 350 350 350 351 350 350 350 350 350 349 349 350 349 350 350 349 350 352 352 352 353 353 353 352 351 351 351 352 352 351 350 349 349 350 349 349 349 350 350 351
344 345 345 345 346 346 347 348 349 351 352 352 352 352 352 352 352 351 352 352 351 352 353 353 353 352 351 350 349 349 349 349 351 352 352 351 351 350 350 350 349 349 349 348 349 350 350 350 351 350 349 349 349 350 350 350 350 350 350 351 350 350 351 352 351 351 351 350 349 348 348 349 350 350 350 350 349 349 349 347 347 348 350 351 352
343 343 343 344 345 346 347 348 349 350 351 352 352 352 351 351 351 351 351 351 350 350 351 353 355 354 352 350 349 349 348 348 349 351 352 352 352 351 351 350 350 349 349 348 348 348 348 349 350 349 349 349 349 349 350 350 350 350 350 351 351 351 351 352 351 350 350 349 348 347 347 348 349 350 349 349 348 349 348 348 347 348 349 351 352
342 342 343 343 344 345 346 346 347 348 348 350 351 351 351 351 352 352 352 350 350 350 350 352 355 355 353 352 352 351 350 347 347 350 351 352 352 352 352 351 351 351 351 350 348 348 349 350 350 350 350 349 349 349 350 350 350 350 350 351 352 351 351 351 351 350 349 349 347 346 345 346 347 348 349 348 348 348 348 348 348 349 350 350 351
340 341 342 342 343 344 344 344 345 346 346 347 348 348 348 348 349 350 351 351 350 350 350 351 353 353 353 352 350 347 344 345 347 348 350 352 354 353 352 352 352 352 352 351 350 350 351 351 351 351 350 350 349 349 349 350 349 349 349 350 351 351 350 350 350 350 350 350 348 346 344 344 345 346 347 347 347 346 346 346 346 347 348 349 351
339 339 340 340 341 341 342 342 343 344 346 346 346 347 347 347 347 348 348 348 348 349 349 349 350 350 350 350 348 344 344 347 349 349 349 352 353 354 353 354 353 353 352 351 350 350 350 350 351 350 350 350 350 349 349 350 349 349 349 349 350 350 349 349 349 350 351 351 348 346 344 343 343 343 344 345 345 345 345 346 346 346 346 347 349
337 338 338 339 339 339 339 339 340 342 343 344 344 345 345 346 347 347 346 346 346 346 346 347 347 346 346 346 346 346 347 348 348 348 348 350 351 352 353 353 353 353 353 352 351 350 349 349 349 350 350 350 350 349 349 349 349 350 349 349 349 349 349 349 349 350 352 351 349 347 345 344 343 343 342 342 343 344 345 346 346 345 345 345 346
335 336 337 337 337 337 338 337 338 338 339 341 341 343 344 345 345 345 345 345 346 347 348 347 347 346 345 345 344 343 344 344 344 345 346 348 348 349 350 350 351 351 352 353 353 352 352 351 350 350 350 350 350 350 349 349 349 350 350 350 350 350 348 348 348 348 349 349 348 348 347 346 345 344 341 340 340 341 343 344 343 343 343 344 346
332 334 335 334 335 336 336 337 336 335 336 337 339 340 342 343 343 342 342 344 345 346 347 348 347 347 347 347 346 345 344 343 344 345 346 347 347 348 348 348 349 349 349 350 351 352 352 352 351 351 350 350 350 350 349 349 350 351 351 351 351 350 349 347 346 346 346 346 346 347 347 347 346 346 343 341 340 340 340 341 342 343 344 345 346
329 331 331 332 333 333 334 335 334 334 334 336 337 339 340 340 341 341 341 342 342 342 343 343 343 343 344 345 345 345 345 345 346 347 348 348 347 347 348 348 349 349 348 348 349 349 349 350 350 350 350 350 349 349 348 348 348 349 350 350 350 350 349 347 345 346 346 346 345 346 348 348 348 348 347 346 344 343 343 344 345 346 346 346 347
328 329 330 331 331 332 333 333 332 333 333 333 334 336 338 339 339 339 339 339 338 338 339 340 340 341 341 342 342 343 343 344 344 345 345 345 345 345 346 347 347 347 348 348 349 348 348 349 348 348 348 348 348 347 346 346 345 345 347 349 349 348 348 348 347 347 347 347 348 348 349 349 350 350 350 349 347 347 347 347 347 347 348 348 348
327 328 329 330 329 329 330 331 332 332 331 331 329 329 331 336 337 337 336 336 335 335 336 337 338 338 338 339 341 341 342 342 343 343 343 344 344 345 346 345 345 346 346 347 348 348 349 349 349 349 348 348 348 347 346 346 347 346 347 349 349 348 347 348 349 349 349 349 348 348 348 349 350 350 350 349 348 347 347 346 346 346 347 348 348
325 326 326 327 326 323 322 324 328 330 330 329 326 321 320 325 329 331 331 331 332 334 335 335 335 335 335 336 337 339 340 340 341 342 343 343 343 345 346 345 344 344 345 345 346 346 347 347 347 347 347 347 347 347 347 347 347 348 348 349 349 348 347 347 349 349 350 349 348 347 348 349 350 350 349 349 348 347 346 346 345 346 347 347 348
320 319 318 318 318 315 313 315 318 321 322 322 319 316 314 316 319 320 321 322 324 328 332 334 334 333 334 334 334 335 336 337 339 340 342 342 343 344 345 345 344 344 344 344 344 344 343 344 344 344 344 344 344 344 345 346 346 347 348 349 349 348 347 348 349 349 350 350 349 348 347 348 348 346 345 345 345 344 343 342 343 344 344 344 344
316 315 314 313 313 312 310 310 311 311 312 313 314 315 315 316 317 317 317 316 316 319 323 327 330 331 332 332 333 333 333 335 336 337 338 339 340 342 343 344 344 344 343 342 342 342 341 342 342 341 341 341 341 340 341 341 343 344 346 347 347 347 348 348 348 348 349 348 347 346 347 347 344 339 335 334 334 335 336 336 337 339 340 341 342
316 316 316 316 316 316 314 313 312 311 310 310 311 312 313 315 318 318 317 316 316 316 316 319 322 326 329 331 331 331 331 333 334 334 334 334 336 337 338 339 340 342 343 342 340 340 340 340 339 339 339 338 338 337 337 337 338 339 340 341 343 345 346 346 346 346 346 345 346 346 343 339 334 328 326 328 331 333 334 334 334 337 340 342 342
317 318 317 316 316 317 317 316 314 313 312 310 310 310 310 312 315 316 317 318 318 317 317 316 318 321 324 326 328 326 326 327 328 329 330 331 333 334 334 334 335 338 340 340 339 338 338 338 338 336 335 334 332 332 332 332 333 334 334 335 337 339 340 340 340 340 340 340 340 336 330 326 325 324 327 333 336 336 336 336 338 340 342 341 340
318 318 316 315 314 314 315 315 314 315 314 312 311 310 310 311 314 316 317 317 318 319 320 320 320 321 322 323 323 323 323 322 322 324 324 325 327 328 330 332 333 333 336 338 338 338 338 338 338 336 334 333 332 332 331 329 328 329 329 328 329 329 329 329 327 327 327 327 325 321 320 324 328 328 331 336 338 337 336 336 337 338 338 336 336
319 318 317 316 314 313 312 312 312 313 313 313 312 311 310 311 313 315 314 312 313 317 321 323 323 323 323 322 321 323 325 323 323 322 322 322 322 320 323 329 332 331 333 335 337 338 338 337 337 337 336 336 336 335 334 332 330 330 329 327 326 324 322 322 321 320 319 319 317 316 322 331 333 331 334 337 336 334 334 334 333 333 333 333 333
319 320 319 318 317 315 313 312 311 311 310 309 310 311 311 310 310 311 311 310 310 313 318 321 322 323 324 323 321 321 323 323 323 321 318 318 320 318 316 321 325 327 329 331 332 335 335 335 335 335 334 334 334 334 332 332 332 331 329 324 320 317 315 315 315 314 314 314 312 313 323 333 335 333 334 336 335 334 333 332 332 332 332 331 332
319 321 321 321 320 318 316 314 313 313 310 307 306 308 310 312 311 310 310 310 311 312 315 320 323 323 324 323 322 321 321 322 321 320 317 316 320 321 318 315 315 318 320 322 323 325 327 329 330 330 328 326 326 326 325 323 323 324 322 315 310 309 309 308 309 309 309 310 311 315 325 335 336 333 332 335 336 335 332 331 331 331 330 330 330
Wind_Speed
29 25 22 24 28 27 26 24 22 23 21 18 17 15 14 16 18 21 21 21 21 21 21 21 21 20 18 16 15 13 11 11 13 13 13 13 14 15 15 15 17 16 14 12 10 9 8 7 8 7 8 7 5 6 6 7 9 10 11 9 8 6 4 6 7 6 11 11 6 5 4 4 7 9 9 8 8 7 7 5 3 0 3 6 8
29 27 24 25 28 28 26 26 26 25 23 21 20 18 16 15 18 21 22 22 22 21 23 22 22 21 19 17 16 14 11 9 11 13 13 13 14 14 15 16 16 15 15 13 10 9 7 7 7 7 8 6 6 7 7 8 9 11 11 8 8 7 5 8 8 7 8 9 6 4 4 4 6 7 8 9 10 11 11 9 6 3 0 4 6
30 28 26 26 30 30 28 29 28 26 24 23 21 19 18 16 17 19 20 21 21 22 23 22 22 21 19 17 16 16 13 8 8 10 10 13 15 14 16 17 15 14 14 12 10 9 8 7 7 7 7 6 7 8 8 9 9 10 9 8 8 6 6 8 7 5 6 7 5 3 3 3 4 4 5 8 9 12 13 11 10 7 3 1 4
31 30 27 28 32 32 31 31 29 27 26 25 23 20 19 18 17 16 18 20 20 22 22 21 22 22 19 17 15 17 14 9 8 8 10 14 15 15 16 16 14 13 12 10 10 9 8 7 7 7 7 7 8 9 9 9 9 10 9 9 8 6 5 7 6 6 7 7 4 2 3 2 3 2 3 5 6 8 12 12 12 11 8 4 1
34 32 30 32 36 35 33 32 30 28 27 26 24 22 20 18 17 15 17 20 20 21 22 22 22 22 21 19 17 18 16 14 14 12 11 14 16 16 16 16 15 13 12 10 9 9 8 7 7 8 8 8 8 9 10 9 10 10 10 9 7 6 6 6 6 7 7 7 4 1 2 2 3 3 3 2 3 4 10 13 14 13 11 9 3
36 34 34 35 37 36 34 32 30 29 28 25 24 23 20 19 18 17 19 21 21 22 22 22 21 22 24 23 22 22 20 19 18 15 13 13 15 17 16 16 15 14 13 11 9 9 8 8 8 9 9 9 10 11 10 10 10 10 10 9 7 6 6 5 5 7 6 7 6 4 1 1 2 3 4 1 2 3 3 9 11 12 13 12 6
39 36 38 38 37 37 35 33 32 30 28 25 25 24 22 21 21 20 21 22 23 24 23 22 21 22 24 24 24 24 23 21 18 15 13 12 14 16 16 17 16 15 14 12 10 9 8 8 9 10 10 9 10 10 9 9 10 10 9 8 7 6 5 4 6 7 6 5 6 4 2 2 3 3 5 4 4 7 5 2 7 11 12 10 7
40 38 40 41 38 38 35 33 33 30 28 27 27 26 23 22 22 22 23 24 25 26 24 23 22 23 22 22 23 24 23 21 18 16 13 12 14 15 16 17 16 16 15 13 12 10 9 8 9 9 10 10 10 9 9 9 10 10 8 7 8 7 6 5 6 6 5 5 6 4 2 1 2 3 4 5 5 6 7 4 5 8 7 6 5
40 39 41 42 39 38 35 34 33 30 29 28 26 25 24 23 22 23 24 25 27 26 25 24 23 23 21 21 22 24 23 21 18 17 14 14 16 15 16 16 16 16 14 13 12 11 10 9 9 10 10 10 10 10 9 10 10 9 8 8 10 9 7 6 5 4 4 5 6 5 3 3 0 2 3 4 5 4 6 6 4 5 4 2 3
39 38 41 42 40 38 35 34 33 31 30 27 25 23 24 24 24 24 26 27 28 27 25 25 24 23 22 22 22 22 22 21 19 18 16 16 17 16 16 15 16 16 14 12 12 11 10 10 10 11 10 10 10 11 10 9 9 8 7 8 10 10 8 7 6 4 4 4 5 5 4 4 2 1 2 3 4 4 5 5 4 3 3 3 2
38 37 39 42 40 38 36 34 33 32 30 28 25 23 23 25 25 25 27 28 29 27 26 25 25 24 23 22 22 22 22 22 21 19 17 17 17 15 15 15 16 16 14 12 11 11 10 10 10 11 11 10 10 11 9 7 8 7 7 8 9 10 10 9 7 6 4 4 5 5 4 2 1 2 4 4 4 4 4 3 3 3 3 3 2
36 36 38 40 40 39 37 35 34 33 31 29 26 23 23 24 25 26 28 28 29 28 27 25 25 24 24 23 22 21 21 21 21 20 18 17 16 14 14 15 16 15 13 12 11 11 11 11 11 11 11 11 10 11 9 7 6 6 7 7 8 9 10 11 9 8 7 5 5 6 4 2 2 3 5 6 6 6 6 5 4 5 4 4 4
34 36 37 39 40 40 38 37 35 34 32 30 27 25 24 24 25 26 28 28 28 28 27 25 25 25 24 23 22 21 20 21 21 20 19 18 16 15 15 16 16 15 12 11 11 11 12 12 11 10 10 9 9 10 10 8 7 7 7 7 8 8 8 10 10 10 9 7 6 6 4 3 3 4 4 5 6 7 7 7 6 7 7 7 6
31 35 36 38 40 41 39 38 36 35 33 31 28 26 26 26 25 26 27 27 27 26 26 26 25 25 25 24 23 22 20 20 21 21 20 19 18 16 15 16 16 15 12 10 10 11 12 12 11 10 9 9 9 9 9 8 7 8 7 6 7 6 7 9 9 9 10 9 8 8 5 3 4 5 4 4 5 6 7 8 8 8 8 8 8
28 34 36 38 40 40 40 38 36 35 35 33 30 29 29 28 26 25 26 27 27 26 26 27 26 26 25 24 24 23 21 20 21 21 20 19 18 17 15 14 14 14 12 10 10 11 12 12 11 10 9 8 8 8 8 8 8 8 7 7 6 6 6 8 8 8 9 9 9 9 7 5 4 5 4 3 4 5 6 7 7 9 9 8 9
26 31 35 37 39 40 40 39 36 36 36 35 33 32 31 30 28 26 25 26 27 27 27 27 26 26 26 25 25 24 22 21 21 21 20 19 18 16 15 14 14 13 12 11 12 12 12 12 11 10 10 9 8 8 9 9 9 9 8 8 7 7 6 6 7 7 9 9 8 9 8 6 5 6 5 5 4 4 5 6 7 8 9 9 10
27 29 33 36 39 40 40 40 38 38 38 37 36 33 32 31 29 27 26 27 27 28 28 27 26 26 26 26 26 25 23 21 21 21 20 19 18 16 15 14 14 14 13 12 12 12 11 11 11 11 10 10 9 9 9 10 10 9 9 9 9 8 8 7 7 7 8 9 8 8 9 7 6 6 6 6 5 4 4 6 6 7 8 8 9
29 28 31 34 37 40 41 40 38 38 39 39 37 34 32 31 30 28 27 28 29 28 28 28 27 27 27 27 26 26 24 21 21 21 20 19 19 17 16 16 15 15 14 14 13 13 12 11 11 12 11 11 11 10 10 10 10 9 9 9 9 10 9 7 6 7 8 9 8 9 9 9 7 6 7 7 6 5 5 5 5 7 7 7 8
31 30 29 32 36 38 40 40 38 37 39 39 37 34 33 32 30 28 26 27 29 29 28 28 29 28 28 27 26 25 24 22 22 21 20 20 19 18 17 16 15 15 15 15 15 14 13 12 12 12 12 12 11 11 11 11 10 10 9 8 8 10 9 7 6 7 8 9 9 10 10 9 8 7 8 9 8 7 7 6 5 6 8 8 9
32 30 29 29 32 36 39 40 39 38 39 40 38 35 34 32 31 28 26 27 29 29 29 29 29 29 29 28 27 26 24 22 22 21 21 20 19 18 17 16 15 15 15 15 15 14 13 13 13 13 13 12 12 12 12 11 11 10 10 9 9 9 9 7 7 8 7 8 10 11 11 10 9 9 9 10 10 10 10 9 7 6 7 9 10
32 31 30 27 27 32 37 38 39 40 40 40 38 35 34 33 31 29 27 28 30 30 29 29 29 30 30 28 28 28 25 23 22 22 22 20 19 18 17 16 15 15 15 15 14 14 13 13 13 14 14 12 11 11 11 11 11 11 10 10 9 9 8 7 7 8 7 7 9 11 12 11 9 9 10 10 10 10 11 10 8 7 7 9 10
31 31 31 29 26 29 36 39 39 39 40 41 39 37 36 34 31 30 29 28 30 31 30 29 29 30 30 29 28 28 27 25 24 23 22 20 19 19 17 16 15 15 16 16 15 14 14 13 13 14 14 12 11 11 10 11 11 10 10 10 10 9 8 6 7 7 7 7 8 9 11 10 9 7 6 6 6 7 8 9 9 8 7 9 11
32 32 34 34 29 25 31 39 40 39 40 41 40 38 37 36 32 31 30 28 28 31 31 30 29 29 29 28 28 28 28 26 25 25 23 20 19 18 17 16 16 16 16 17 16 15 14 13 13 13 13 12 12 12 11 10 10 10 10 10 9 9 8 7 7 7 7 7 8 9 9 9 7 6 5 5 5 4 7 9 8 7 8 9 10
30 30 31 34 34 28 28 36 39 40 41 41 41 40 38 36 34 32 31 29 27 29 31 30 29 29 28 27 27 27 28 27 26 25 23 21 19 18 17 16 16 15 16 17 16 16 15 15 14 14 13 13 13 13 12 11 10 9 10 10 9 9 9 8 8 8 7 7 8 8 8 7 5 4 5 6 5 5 7 8 9 8 8 9 9
27 29 30 31 32 29 29 37 40 41 44 42 40 41 39 37 36 35 32 29 27 28 31 31 30 29 28 26 26 25 27 28 27 26 25 23 22 20 18 18 17 17 16 15 15 16 16 16 15 15 14 15 14 13 12 12 11 10 10 10 10 9 9 9 8 8 7 7 8 8 7 7 6 5 5 6 6 8 7 7 8 8 7 8 8
13 18 24 28 30 28 28 35 39 41 43 42 40 41 41 38 36 35 33 29 27 28 30 31 30 28 27 26 24 23 23 26 27 27 26 25 23 22 20 19 18 17 16 14 14 15 16 17 16 15 16 16 15 13 13 12 12 12 11 11 10 10 10 10 9 8 8 8 8 8 7 7 7 7 7 6 7 8 8 7 6 6 7 9 9
6 5 8 14 21 26 29 33 35 37 37 35 36 39 41 40 38 35 32 28 25 26 29 30 27 25 24 25 25 22 20 21 23 25 27 26 23 22 21 20 18 17 16 14 14 14 14 15 15 15 16 16 15 15 14 13 13 13 13 12 11 10 11 11 10 8 8 9 10 10 9 8 8 8 7 6 6 7 8 8 8 8 9 9 9
9 8 8 9 8 12 21 28 31 34 35 31 30 31 32 34 36 35 33 30 27 26 27 28 26 25 25 25 26 25 21 19 19 20 23 24 23 21 20 19 19 19 18 16 14 14 13 12 13 14 15 15 15 16 15 15 15 15 14 13 12 12 13 12 11 10 9 9 10 10 10 10 9 9 8 8 8 8 8 9 8 9 10 9 9
4 5 8 9 6 5 12 23 26 29 32 30 31 33 30 30 32 31 30 31 31 30 30 31 29 29 28 25 25 26 24 22 20 18 18 20 21 21 21 20 20 20 20 19 17 15 14 13 13 13 14 15 16 16 17 16 16 16 16 15 14 14 14 14 14 13 11 10 10 10 9 9 10 10 10 10 10 9 9 9 8 9 10 10 11
6 3 2 6 2 4 5 20 25 25 26 27 33 36 34 34 33 30 29 30 30 29 30 32 32 32 30 27 26 26 26 24 23 21 21 21 22 23 24 23 23 23 23 22 20 18 16 15 15 14 15 17 18 18 17 17 17 17 17 17 16 15 15 15 15 14 12 11 11 11 11 10 10 10 10 9 9 9 10 10 10 11 12 11 12
9 7 3 4 3 4 2 13 19 20 21 23 28 31 30 32 32 30 30 29 29 27 25 27 31 32 31 29 26 26 25 23 21 21 23 24 24 24 24 24 24 23 24 24 22 20 19 18 17 17 17 19 19 18 17 17 17 18 18 18 17 16 15 15 15 14 13 12 11 10 10 9 10 11 11 11 10 11 12 12 12 13 13 12 12
12 11 9 7 5 4 5 8 11 15 19 21 22 22 23 25 26 28 29 29 29 28 23 23 27 29 30 29 26 25 24 22 20 19 20 22 23 23 24 24 23 22 22 23 23 22 21 21 20 20 19 19 19 19 18 17 17 17 18 18 18 16 14 14 13 12 12 11 9 8 9 9 10 11 12 13 12 12 13 13 13 12 12 12 12
15 13 14 13 11 10 9 10 11 12 15 17 19 20 19 20 22 25 28 29 29 27 24 23 24 25 28 28 26 25 25 24 23 21 20 20 21 22 23 24 24 23 21 22 23 23 23 23 22 21 21 20 19 19 19 19 18 17 17 18 18 16 15 14 13 11 10 10 10 11 12 12 12 13 13 13 12 12 13 13 13 13 13 13 13
18 16 16 15 13 12 10 9 9 8 10 12 14 18 19 18 17 20 23 24 25 24 24 24 24 23 25 27 26 25 24 24 25 25 23 22 23 23 24 24 24 24 23 22 22 23 24 25 24 23 22 22 21 22 22 21 20 19 19 19 18 17 16 16 15 13 12 13 14 14 14 13 13 13 12 12 12 12 13 13 12 13 13 13 14
19 19 19 18 16 15 15 12 7 4 5 8 9 11 14 14 14 14 16 18 19 21 22 25 25 22 22 23 24 25 25 24 25 26 26 26 26 25 25 25 25 26 26 24 22 21 23 24 25 26 25 25 24 25 24 24 22 21 20 21 20 18 18 18 18 17 16 17 18 17 17 16 16 15 14 14 14 15 15 15 14 15 15 15 15
19 21 21 21 20 20 19 17 13 7 6 6 5 5 8 10 12 13 14 16 18 20 21 24 25 23 21 22 24 25 26 26 26 27 27 28 28 27 27 27 28 29 31 29 26 25 24 24 24 25 27 27 26 26 26 26 23 21 21 21 21 20 20 20 21 21 20 20 21 21 19 18 18 18 18 18 18 17 17 17 17 17 16 17 18
17 19 20 22 22 22 22 20 18 14 9 5 4 2 4 6 8 10 12 14 17 18 20 22 24 24 23 23 24 25 26 27 26 27 28 29 29 29 28 28 29 31 32 32 32 32 31 29 27 26 27 27 26 25 26 25 23 21 21 21 21 21 22 23 23 24 23 23 23 23 22 20 19 19 21 22 22 20 19 18 18 18 18 18 19
14 15 17 19 20 20 22 21 20 19 17 13 10 7 5 6 7 6 7 9 12 16 18 20 21 22 22 22 22 24 26 27 27 27 28 29 30 31 30 27 27 29 30 30 30 32 32 32 30 27 28 28 27 26 26 25 24 23 23 23 22 23 24 25 26 26 27 27 26 26 25 23 20 19 20 22 23 23 22 21 20 20 20 19 19
13 13 13 14 14 14 16 16 17 20 20 18 15 12 10 10 9 8 7 8 9 10 12 13 14 15 17 19 20 22 24 26 27 27 27 28 29 31 31 29 28 29 30 31 31 32 32 31 29 28 29 29 28 27 27 27 26 26 26 25 25 25 25 26 27 27 28 29 28 28 27 24 22 21 20 21 22 22 22 21 20 19 19 18 18
13 13 12 12 11 12 13 14 15 17 17 16 14 13 12 12 10 9 9 10 9 8 8 7 6 6 8 10 13 15 17 19 21 23 24 26 27 26 26 27 27 28 30 31 31 31 31 29 28 29 32 33 32 30 29 30 29 29 29 29 27 27 27 27 28 27 27 27 27 26 25 24 22 22 21 21 21 20 20 19 18 18 18 18 17
12 11 11 11 11 11 11 12 13 12 12 12 11 9 9 11 11 10 10 10 9 8 8 7 6 5 6 6 7 7 6 7 9 12 15 17 18 16 17 20 23 24 25 26 26 27 27 26 26 28 31 32 33 33 32 33 33 32 31 31 31 29 27 26 26 26 26 25 24 23 23 23 22 22 21 19 18 18 18 18 18 17 17 17 16
9 8 7 7 8 10 10 9 8 7 7 8 9 9 8 8 9 11 12 11 9 8 8 9 8 7 7 6 7 7 5 3 4 7 9 10 9 9 9 12 15 17 18 19 21 21 22 22 23 24 25 25 26 28 28 30 31 31 31 31 31 30 28 27 27 26 26 24 23 23 23 22 21 19 18 16 15 15 15 15 15 15 15 14 14
6 5 4 3 4 6 7 8 7 5 4 4 5 7 8 7 6 9 11 11 10 11 12 13 12 10 9 9 8 8 6 4 4 5 9 10 9 9 8 7 8 10 12 14 15 14 15 16 17 17 18 18 19 21 22 23 25 26 27 29 29 29 30 30 29 27 25 24 24 23 22 20 17 15 14 14 13 13 13 12 13 12 12 12 13
4 5 5 3 2 3 6 8 8 6 4 3 3 5 8 9 9 10 9 9 9 10 11 12 12 10 9 9 9 8 7 6 5 4 6 8 7 8 10 10 8 8 9 10 10 8 8 10 10 10 11 12 13 16 18 20 21 21 23 26 29 32 33 32 29 25 23 21 20 20 18 16 14 11 10 11 11 11 10 10 10 10 10 11 12
7 8 8 7 7 7 8 8 8 7 6 5 4 3 5 8 11 10 9 9 9 8 9 10 9 9 8 8 8 7 6 5 5 4 4 3 2 4 7 8 9 9 8 7 7 7 6 6 6 6 5 6 6 7 11 14 16 17 18 19 22 27 29 26 23 20 17 15 15 15 14 12 11 9 7 7 7 7 7 7 8 9 10 11 10
7 7 7 6 7 7 8 9 9 8 8 7 6 5 5 7 9 9 7 7 6 6 7 8 9 9 8 7 7 6 5 4 4 3 3 3 3 2 1 0 3 9 10 9 8 8 8 8 7 5 4 4 3 3 4 6 7 8 10 11 11 13 14 14 13 13 12 12 12 11 10 9 8 6 6 5 5 6 7 7 8 9 11 10 8
4 4 5 5 4 4 4 6 8 8 7 7 7 7 8 9 9 8 7 6 5 4 5 7 8 9 8 7 7 6 4 3 3 2 1 1 1 1 2 4 4 2 6 10 12 12 11 11 11 10 8 8 7 6 6 6 5 4 5 6 5 6 7 7 8 9 9 9 9 9 8 8 8 8 8 8 9 9 8 7 7 9 10 8 6
2 2 3 4 3 3 2 2 4 5 5 5 5 5 6 8 8 8 8 7 7 6 6 6 8 8 9 8 7 6 5 6 6 4 3 3 2 2 1 3 5 6 6 7 11 13 14 13 12 10 9 9 8 7 6 6 6 6 6 6 6 6 7 7 7 7 8 8 8 9 10 10 10 10 11 10 10 10 8 8 8 8 9 7 6
3 1 1 1 2 2 2 1 1 2 2 3 2 2 3 5 6 6 6 6 6 8 9 8 8 8 8 7 6 6 6 5 4 3 3 3 4 4 4 1 2 4 7 8 7 8 10 11 9 7 6 5 2 2 2 3 4 3 3 4 4 5 7 7 7 7 7 8 8 10 12 12 12 13 13 11 10 10 10 9 9 9 8 7 7
4 3 2 2 2 3 3 3 2 1 0 1 2 3 5 5 5 6 6 6 6 7 8 9 7 6 6 6 5 5 5 4 3 1 2 2 1 1 3 3 2 1 2 4 4 4 5 5 4 3 2 2 3 3 4 5 6 5 4 3 3 3 5 6 7 7 8 9 10 11 13 13 13 15 14 13 12 12 12 12 12 11 10 9 8
6 5 5 5 5 4 5 5 5 5 5 3 2 2 4 5 6 7 7 8 7 7 7 8 8 7 6 5 5 5 4 4 3 2 3 4 5 5 3 2 2 3 2 1 1 2 3 3 4 4 5 6 7 9 10 11 11 10 8 6 4 4 5 6 8 9 9 9 10 10 12 14 15 15 14 14 15 15 14 14 13 12 10 9 9
Wind_Direction
175 177 182 188 186 184 182 179 179 180 179 180 183 187 182 176 179 177 171 169 168 162 159 158 156 158 163 163 159 157 160 167 173 175 176 175 172 172 172 170 168 167 171 176 177 178 177 180 186 188 180 176 182 181 173 163 167 174 174 173 165 152 130 123 113 116 155 168 171 189 201 187 193 206 219 231 240 251 257 240 202 88 33 61 75
180 179 184 189 182 182 183 180 181 180 179 181 184 192 194 188 183 178 175 175 172 166 164 162 158 160 167 171 171 170 173 176 171 167 171 174 174 172 172 175 176 174 177 181 181 184 183 183 185 184 179 180 184 172 160 157 166 174 172 166 154 140 121 124 127 126 150 169 167 166 180 172 184 200 215 227 235 243 247 238 219 210 339 54 81
181 180 186 188 180 180 182 181 184 183 181 184 188 194 198 195 185 177 180 181 175 170 170 166 161 161 168 179 183 180 183 189 181 173 178 183 181 178 177 181 183 181 182 183 183 185 186 183 179 175 175 173 169 161 156 157 163 172 171 163 148 130 120 127 133 138 156 175 176 177 186 182 192 201 229 232 229 232 233 234 232 225 220 73 68
180 183 186 184 178 178 180 182 184 183 184 187 191 197 199 199 190 182 185 185 178 174 174 170 165 164 170 180 184 181 184 191 192 189 188 189 187 185 185 186 188 187 188 188 184 180 175 173 172 174 176 173 165 157 157 161 164 173 175 166 152 133 128 137 141 139 152 177 190 223 222 231 235 258 290 247 238 236 231 238 240 233 225 219 50
182 185 185 179 176 178 180 183 183 184 187 190 194 199 201 201 196 191 190 186 181 178 176 173 172 170 172 176 176 178 185 194 197 193 188 192 190 187 188 188 188 191 195 196 188 178 171 170 170 172 177 175 168 159 159 165 170 175 174 167 157 141 130 132 143 134 137 162 167 192 216 239 265 323 351 226 229 249 229 231 236 234 226 220 241
185 185 181 178 177 179 180 182 185 187 190 194 198 200 202 203 202 199 193 186 183 181 178 176 177 176 177 178 178 181 188 195 198 193 187 195 192 187 189 190 189 192 196 198 193 181 173 174 171 169 174 176 171 165 164 171 175 172 169 168 161 148 137 131 145 142 136 145 134 118 133 352 340 13 23 97 107 57 230 229 233 233 226 223 241
184 183 179 178 179 180 181 184 188 190 193 197 198 201 204 204 205 202 194 187 185 184 182 180 180 181 183 186 188 190 193 195 199 194 190 199 196 190 193 193 189 192 196 197 194 184 174 176 174 171 172 174 175 171 171 178 177 171 169 173 173 162 155 155 161 160 153 148 139 130 99 20 11 22 14 4 52 59 61 199 223 226 225 230 243
182 181 179 179 181 183 184 186 191 193 194 197 197 201 205 205 204 200 194 189 187 187 185 184 186 187 190 194 195 196 196 196 199 198 200 206 199 193 196 195 190 193 196 196 195 184 175 178 181 180 177 176 182 183 183 184 179 176 177 184 189 181 174 178 173 165 160 163 165 161 151 71 22 8 359 355 11 50 65 90 190 209 223 236 237
182 182 181 181 183 186 188 188 192 195 197 198 200 204 206 205 201 196 194 192 190 190 187 187 191 192 195 198 198 197 197 199 203 203 205 204 194 192 198 195 190 195 197 194 195 187 180 186 187 188 187 186 191 191 186 187 183 180 182 190 195 191 187 190 182 168 163 170 179 183 203 209 175 20 13 15 19 36 52 65 123 170 183 193 196
185 184 183 183 185 189 191 191 193 196 199 200 202 205 206 205 200 195 195 193 192 192 191 191 193 194 197 199 199 198 198 202 206 206 206 197 187 189 196 192 191 198 197 190 193 190 188 191 188 189 191 193 196 190 183 187 184 179 183 192 195 194 199 201 191 176 171 178 192 199 214 223 221 38 27 21 21 21 29 49 74 105 110 107 140
187 184 184 185 186 189 191 192 194 196 198 199 201 204 204 203 200 197 195 193 192 194 195 195 195 196 200 199 200 200 199 202 205 206 206 196 186 189 197 195 195 200 196 190 191 192 194 193 190 194 196 194 196 195 194 192 186 183 188 190 192 198 207 209 201 191 189 199 214 216 218 233 284 349 356 358 354 348 348 3 17 20 41 45 340
188 184 183 184 184 187 190 192 193 194 196 198 200 202 202 201 200 199 198 195 195 197 198 199 197 198 202 202 202 203 203 203 205 206 207 201 193 196 201 199 199 200 196 197 196 194 199 198 196 201 201 197 197 203 208 201 191 196 200 195 193 198 207 211 212 208 205 218 228 221 219 232 286 326 334 337 329 322 321 319 326 326 323 336 334
190 186 184 185 184 185 188 191 192 193 195 198 202 203 203 202 201 202 201 198 198 201 201 199 199 200 203 204 204 207 207 206 207 208 209 208 202 200 203 200 200 202 200 202 200 197 202 204 202 203 204 202 201 205 210 209 206 208 208 203 195 196 205 211 218 221 221 233 233 217 212 230 260 301 323 326 317 310 306 301 308 310 302 301 308
194 192 188 187 187 186 188 191 192 193 195 199 203 205 204 205 205 203 204 202 202 203 201 200 201 201 203 205 206 208 209 208 209 209 209 211 208 204 206 203 203 207 207 206 205 201 203 205 205 205 206 209 211 214 218 221 224 221 220 216 202 203 211 212 216 224 228 232 228 219 213 223 253 280 304 316 307 303 302 298 300 304 302 298 299
198 195 192 191 191 190 189 192 194 194 196 200 204 205 205 207 207 205 206 205 203 202 201 200 200 200 203 205 207 209 209 209 209 209 209 210 209 208 209 205 204 210 213 212 212 208 206 208 209 208 209 213 218 222 223 227 232 231 229 226 221 220 221 218 217 224 229 227 225 225 222 222 248 263 273 290 297 303 308 307 305 305 306 304 302
204 198 195 195 195 193 192 193 195 196 198 201 204 205 206 208 209 208 209 207 203 202 201 201 200 201 203 204 207 208 207 206 206 206 207 207 206 207 209 207 205 210 214 214 214 213 209 211 214 215 216 218 222 225 225 228 232 235 234 231 234 239 238 233 229 230 232 229 231 233 228 228 243 250 247 253 275 300 307 312 316 312 310 311 311
208 201 196 195 196 197 196 195 196 198 199 202 204 206 207 209 209 209 211 209 205 203 202 202 200 201 203 203 205 206 204 204 203 203 204 205 208 208 209 209 208 210 213 212 213 216 215 216 218 220 223 224 225 227 228 230 232 236 239 238 238 245 252 251 246 242 237 233 233 232 231 232 234 241 245 248 258 276 292 308 316 310 305 312 317
210 205 198 194 195 197 197 197 197 199 202 203 205 207 208 209 210 210 211 209 206 204 203 201 200 201 203 204 204 205 204 203 201 201 203 207 211 210 208 209 209 210 212 213 215 218 220 221 221 221 225 227 226 224 226 230 232 235 239 241 240 243 250 253 251 247 244 244 236 229 234 236 231 240 251 253 256 266 279 293 304 302 300 305 309
209 206 200 195 195 197 197 197 197 199 203 205 205 207 207 209 211 214 215 211 207 206 203 201 201 202 204 205 206 206 205 202 201 201 204 209 211 209 207 209 210 211 214 216 217 220 222 222 223 222 223 226 226 225 228 231 231 232 234 237 237 240 246 247 244 243 245 245 236 228 234 237 234 239 249 256 258 264 271 273 282 295 297 298 300
210 208 202 197 198 199 199 199 199 200 203 204 204 206 207 209 212 216 216 212 208 206 204 202 201 202 205 206 207 208 206 203 201 201 205 209 209 209 210 211 211 212 214 216 218 220 222 224 227 227 225 226 227 226 229 232 232 231 232 234 234 237 241 239 237 238 239 240 235 229 232 237 239 240 246 254 257 262 269 269 272 285 296 301 302
213 213 207 201 202 202 199 198 200 200 202 204 205 207 209 210 213 216 215 211 208 206 205 205 203 203 205 206 206 208 208 206 203 203 206 208 208 210 212 212 214 216 217 218 219 221 224 226 229 229 228 228 229 228 228 231 232 230 230 234 234 236 241 240 235 233 234 238 237 234 235 238 242 247 252 256 256 258 262 262 263 276 294 300 300
216 217 213 209 208 206 202 199 198 198 201 204 207 208 209 210 212 214 214 212 210 208 206 206 204 204 207 207 207 207 209 209 207 206 209 210 212 214 214 215 219 220 220 221 223 225 227 227 228 230 231 230 231 232 231 231 232 231 231 233 235 238 240 238 232 228 233 240 240 241 241 243 250 259 259 253 250 247 247 249 258 275 291 296 298
217 219 218 215 215 215 208 202 199 199 201 202 205 207 207 208 210 211 212 212 211 210 208 207 206 206 207 208 208 208 209 209 208 208 209 211 214 217 219 222 223 222 221 224 227 229 228 227 228 231 232 232 233 233 233 234 234 233 235 236 239 243 242 239 236 230 233 239 239 242 247 254 269 273 242 221 226 232 235 244 259 277 289 294 298
214 216 219 216 218 222 214 205 202 203 202 201 202 205 205 207 209 209 211 212 210 210 209 207 207 208 208 208 209 210 210 210 210 209 209 210 214 219 224 229 229 224 221 223 227 229 229 229 230 231 230 231 234 234 231 232 234 236 237 237 240 247 249 249 244 236 238 246 244 243 244 248 257 253 227 222 235 250 252 260 269 275 285 293 296
205 207 211 210 213 217 212 206 204 205 204 202 202 204 206 208 209 208 209 210 210 210 208 206 207 208 209 210 209 210 211 211 211 210 209 211 215 220 226 230 231 227 222 223 228 232 232 231 231 233 233 231 233 235 233 232 234 237 238 238 238 243 253 257 253 249 251 254 249 242 238 237 239 241 241 240 248 257 262 267 267 270 282 291 290
196 197 201 204 207 209 207 203 202 201 201 202 204 206 208 209 208 206 206 207 209 210 208 206 206 207 209 210 210 210 211 213 214 212 211 212 215 219 224 226 227 226 227 228 231 235 236 235 235 236 236 235 233 234 235 236 239 241 243 243 240 240 248 255 258 259 258 258 256 252 249 249 251 254 256 257 260 258 252 250 256 271 283 283 282
202 202 206 211 208 209 207 202 198 195 195 199 204 206 208 207 205 204 205 204 205 207 207 205 202 203 207 209 210 211 213 216 217 215 214 215 217 218 220 222 225 229 232 233 235 240 242 239 237 236 235 235 236 237 238 238 240 243 245 245 243 244 247 249 253 259 260 261 264 265 265 261 256 254 253 260 269 262 251 248 255 266 273 279 287
199 220 260 280 262 229 211 202 198 195 194 200 204 202 199 196 195 197 198 199 200 201 202 201 200 202 205 206 208 210 212 214 214 215 216 217 217 218 220 223 226 230 234 236 238 243 245 240 237 238 236 235 238 239 239 239 239 239 241 244 247 251 252 254 256 258 260 261 264 268 269 264 257 256 256 256 259 257 256 258 259 262 270 283 297
120 194 240 255 275 286 225 209 205 201 201 203 201 197 194 192 190 189 189 193 196 198 200 200 202 206 206 205 207 208 210 211 209 211 213 213 214 218 224 227 229 233 238 241 243 245 246 243 238 237 236 235 237 237 235 235 235 233 233 237 244 250 253 254 255 255 257 261 263 263 261 258 257 259 262 262 262 260 261 266 267 264 266 277 290
54 91 204 215 210 7 235 214 214 214 213 206 196 193 194 196 195 193 194 195 196 199 203 205 208 209 208 207 208 209 210 211 212 216 219 218 218 222 227 232 234 237 240 242 242 243 245 245 241 238 236 234 236 238 236 233 234 235 234 233 236 242 247 249 249 250 253 255 257 257 255 254 255 256 258 259 264 266 264 268 271 266 262 268 279
51 61 76 193 200 35 118 197 204 208 208 199 192 190 190 190 191 192 197 198 196 198 204 207 210 211 208 207 210 213 212 209 211 218 222 224 226 228 231 234 235 237 239 240 238 239 242 243 241 238 236 233 234 237 235 233 234 236 235 234 234 235 240 246 247 246 247 249 252 255 255 253 254 258 257 251 254 260 261 263 266 262 257 260 271
62 69 82 117 145 101 108 156 170 186 197 197 193 189 186 187 189 192 197 199 198 199 200 202 205 208 208 207 211 216 215 211 212 214 216 221 226 229 232 234 236 236 236 235 233 233 237 239 239 240 239 236 235 233 232 233 236 237 235 234 233 230 231 237 240 241 244 244 240 236 237 243 248 254 255 254 258 262 263 263 263 260 254 254 263
69 78 84 93 104 109 125 144 143 154 176 187 194 194 190 192 196 198 200 199 199 203 206 206 204 205 207 208 212 218 219 220 223 222 218 220 224 229 234 237 238 240 239 237 234 233 234 236 239 243 245 245 243 239 236 238 240 242 238 233 230 228 225 225 228 233 234 231 228 227 231 239 243 246 252 259 265 269 270 268 264 261 258 256 259
74 80 84 84 91 100 112 135 143 136 132 144 174 190 192 193 194 196 200 200 203 210 215 215 213 212 211 210 214 220 223 225 229 229 228 229 230 231 233 237 239 238 235 231 230 233 237 238 241 244 247 249 249 247 245 245 246 247 244 235 229 226 225 223 225 227 229 231 236 239 243 248 248 249 253 260 267 274 278 275 270 268 270 267 264
78 83 87 86 86 87 87 95 112 138 144 145 161 177 185 187 183 185 192 196 203 213 217 219 223 225 222 219 221 229 233 231 229 230 232 235 238 237 235 237 238 236 230 224 221 225 229 233 238 241 244 247 249 250 249 249 250 250 244 236 230 227 227 228 229 230 231 237 243 247 250 254 256 256 258 262 268 274 278 279 278 279 279 277 273
85 87 91 92 92 90 88 88 93 110 156 176 178 184 193 191 186 191 197 197 203 212 216 220 225 226 223 222 225 230 233 230 228 229 232 237 244 245 241 238 237 240 241 239 236 233 231 230 232 236 240 245 247 248 248 248 249 247 241 236 233 230 229 233 236 237 238 241 246 249 252 255 258 261 262 265 268 272 275 276 277 279 279 278 276
92 93 95 97 97 96 94 92 92 96 104 109 101 129 183 187 195 211 216 213 216 221 223 226 230 230 227 226 227 229 231 230 231 232 235 239 243 246 247 245 241 242 245 245 243 242 241 238 235 233 237 241 242 242 242 242 242 241 238 236 235 234 234 237 239 240 240 241 245 249 253 257 262 264 264 264 265 266 269 271 275 280 283 282 281
101 102 100 98 97 96 95 93 93 93 94 93 91 92 113 142 161 184 201 208 213 222 227 231 235 236 235 233 233 235 236 237 238 240 241 244 246 248 253 256 252 249 249 248 247 245 243 240 236 233 234 237 238 238 239 240 241 240 239 239 240 241 240 238 239 240 240 242 244 248 252 258 264 267 264 262 261 262 264 268 273 278 281 283 283
113 112 105 100 95 95 97 96 94 96 100 104 105 105 112 124 130 134 143 156 174 197 212 219 225 230 231 233 235 238 241 242 243 244 244 246 248 249 253 257 259 258 257 255 252 250 248 243 238 235 236 236 236 235 236 239 240 241 242 241 241 245 245 239 238 239 240 241 244 247 251 257 264 267 265 262 261 261 263 266 270 273 276 278 279
108 108 106 103 97 97 101 100 98 101 102 101 101 105 112 116 117 120 122 120 126 141 153 163 179 193 206 218 224 230 238 241 243 246 247 247 250 252 253 254 255 257 258 256 253 252 252 249 245 245 246 246 246 244 242 242 243 244 246 244 241 245 248 243 239 239 237 237 240 244 251 259 265 267 265 263 263 263 265 268 270 272 273 273 274
102 103 103 98 91 87 89 90 91 94 91 83 78 87 110 124 128 127 120 110 107 109 115 124 133 142 161 184 193 198 214 229 238 247 248 245 247 253 258 257 256 257 257 255 251 247 246 246 245 247 249 249 251 252 249 249 248 247 248 247 241 237 237 237 235 233 231 231 235 241 251 260 264 264 263 263 264 267 270 272 272 272 272 272 273
107 106 97 86 82 84 87 88 89 85 76 68 60 64 91 128 142 134 123 117 116 114 114 120 126 131 142 163 183 193 193 187 207 228 233 230 227 233 247 257 257 253 247 242 239 236 234 237 240 242 244 247 251 252 249 249 249 246 247 248 243 234 229 228 227 226 227 229 235 244 254 259 261 261 260 260 263 266 267 269 271 272 272 272 274
110 104 87 58 61 84 95 102 110 110 93 69 48 58 80 108 134 134 131 134 137 137 134 131 126 122 123 129 147 166 163 149 163 202 221 224 222 218 217 220 229 230 222 222 225 222 219 226 233 235 238 243 248 251 249 247 246 243 243 245 242 234 229 225 223 224 228 232 240 249 255 258 259 260 261 263 263 262 262 263 267 269 269 265 264
108 102 98 86 77 93 100 104 111 114 107 92 58 70 93 106 115 125 139 149 153 154 151 142 132 122 115 115 124 136 136 130 122 140 187 203 210 210 201 192 194 206 211 212 213 207 204 211 216 222 229 236 242 250 252 246 238 231 229 232 233 229 225 224 224 226 229 232 239 247 252 256 262 266 268 268 267 264 262 259 257 252 245 240 242
104 97 93 92 92 92 92 96 101 104 109 108 92 85 104 113 117 127 140 146 148 154 158 156 152 145 133 122 121 123 121 123 121 111 120 135 149 179 186 185 186 187 189 195 194 190 190 194 198 209 222 231 238 246 245 237 226 215 207 206 211 216 218 220 222 223 224 228 235 242 248 255 262 263 260 261 259 250 238 233 231 222 213 214 219
100 87 78 76 80 83 87 92 94 97 108 117 117 121 131 130 131 139 144 143 145 148 149 154 159 161 158 150 144 140 128 125 130 117 88 65 53 81 98 65 185 177 172 165 157 158 164 163 158 155 160 170 171 169 191 199 200 200 192 177 178 194 202 203 204 208 217 227 233 238 241 241 237 227 217 210 200 195 198 202 204 199 196 200 207
97 81 73 66 62 61 75 91 98 101 106 114 123 134 143 147 153 162 165 168 176 174 167 167 166 166 170 172 170 169 170 181 198 198 141 73 43 89 68 37 38 104 157 157 151 148 146 138 126 118 119 125 126 127 141 150 148 160 174 164 161 173 180 184 193 202 213 219 219 218 213 204 196 186 176 171 175 183 191 189 185 190 197 202 208
131 97 83 70 60 57 69 94 110 113 113 117 121 131 144 153 162 169 172 179 185 181 178 180 177 175 177 175 172 175 185 198 210 220 227 235 255 272 294 72 60 49 70 122 147 155 149 134 119 114 118 119 119 124 136 144 146 151 155 152 155 162 166 172 182 189 193 195 195 194 188 182 177 169 163 169 183 190 191 188 188 196 204 207 213
183 188 116 56 35 33 46 67 106 128 148 164 171 177 175 171 176 182 186 194 196 185 180 181 186 192 196 191 180 172 176 192 210 227 245 248 253 280 300 340 75 70 75 92 119 147 146 135 125 126 133 134 131 142 166 179 182 179 169 163 166 168 170 176 182 187 191 192 192 190 186 182 174 164 163 175 191 193 190 191 195 200 205 208 215
219 252 263 276 297 320 344 355 358 8 53 207 216 220 211 204 208 213 213 213 211 196 185 186 192 199 207 214 217 204 199 211 217 162 88 77 82 325 294 290 289 315 95 104 110 126 139 141 146 154 165 211 249 271 282 278 273 272 270 265 244 207 191 190 191 193 198 202 202 198 193 185 174 169 173 185 195 195 192 192 193 197 205 212 220
236 259 276 288 292 297 311 322 331 338 339 331 310 259 228 219 220 224 222 217 216 212 202 198 195 188 189 207 233 241 230 221 214 173 110 94 84 71 44 345 307 299 305 313 256 242 240 229 229 246 269 282 284 288 291 290 285 281 281 279 261 221 199 192 189 191 198 205 203 199 194 186 181 182 188 192 192 191 192 194 197 201 207 218 231